Location: Northcutt
(34.7304°N, 84.4305°W)
Time: 08:28:07
(UTC+00:00)

S-56A Canister/Altair - Pass Details

Date: 03 October 2022
Orbit: 638 x 2494 km, 38.9° (Epoch: 08 December)

Event Time Altitude Azimuth Distance (km) Brightness Sun altitude
Rises 13:30:32 0° 282° (WNW) 3,643 10.4 22.4°
Reaches altitude 10° 13:34:19 10° 263° (W) 2,415 9.7 23.1°
Maximum altitude 13:37:41 17° 224° (SW) 1,798 9.3 23.7°
Drops below altitude 10° 13:40:40 10° 184° (S) 2,082 10.1 24.3°
Sets 13:43:35 0° 162° (SSE) 2,923 11.1 24.8°
